Tracking 29892 objects as of 21-Nov-2024
HD Live streaming from Space Station
objects crossing your sky now

SL-8 R/B

Track SL-8 R/B now!
10-day predictions
SL-8 R/B is classified as:


NORAD ID: 21938
Int'l Code: 1992-020B
Perigee: 965.7 km
Apogee: 1,008.6 km
Inclination: 82.9 °
Period: 104.7 minutes
Semi major axis: 7358 km
RCS: 4.1798 m2 (large)
Launch date: April 15, 1992
Source: Commonwealth of Independent States (former USSR) (CIS)
Launch site: PLESETSK MISSILE AND SPACE COMPLEX (PKMTR)

Note: This is a ROCKET BODY
Your satellite tracking list
Your tracking list is empty




NASA's NSSDC Master Catalog

Two Line Element Set (TLE):
1 21938U 92020B   24326.08935420  .00000235  00000-0  22778-3 0  9993
2 21938  82.9281 145.5068 0029118 177.4566 322.3652 13.75463760636326
Source of the keplerian elements: AFSPC